Theta_e
292 291 293 294 294 294 293 292 292 291 292 292 289 290 294 293 288 287 291 291 288 291 293 295 295 295 295 293 292 292 293 291 291 291 291 292 292 292 290 292 293 293 293 292 292 291 292 290 292 291 292 292 291 291 291 292 290 293 290 292 291 292 291 292 294 295 296 295 293 292 294 296 296 297 297 296 296 296 296 298 302 302 303 303 301 301 299
291 290 292 294 293 293 293 292 292 293 292 292 293 293 294 294 292 293 294 293 292 295 296 297 298 298 295 295 292 291 291 292 292 292 292 292 292 291 293 295 295 295 294 293 292 292 290 292 292 292 292 293 294 295 294 292 293 291 291 292 293 294 295 295 294 294 295 296 297 294 294 294 293 293 293 293 294 293 294 295 295 295 296 296 295 297 298
287 290 292 293 293 292 290 291 292 293 293 293 294 294 294 294 294 294 294 292 292 297 293 295 296 296 297 296 294 293 292 291 292 292 293 292 292 292 293 294 294 295 295 294 291 292 293 293 293 294 295 295 293 293 293 293 294 292 293 294 295 295 297 295 294 294 295 295 294 294 293 290 290 290 291 290 291 292 292 292 292 291 291 293 292 293 294
285 288 289 291 292 291 290 289 291 291 291 289 291 291 293 292 291 292 292 290 290 296 294 295 293 294 294 294 294 291 292 292 293 293 293 293 293 293 293 293 293 293 294 294 294 295 294 293 293 293 294 293 293 294 294 294 294 293 295 296 297 296 296 295 294 294 293 292 292 292 291 291 290 289 288 289 289 289 289 290 289 289 291 292 292 291 292
285 288 289 289 289 288 286 287 291 292 293 293 294 294 295 294 295 291 288 290 296 294 296 297 295 296 295 294 293 293 291 292 294 294 294 293 293 294 293 293 293 294 295 295 296 296 294 294 294 294 294 293 294 295 294 293 294 296 297 296 296 296 294 293 293 292 291 291 291 290 290 290 289 288 288 288 288 289 289 288 288 290 291 291 291 290 291
286 287 287 288 285 279 281 294 296 295 292 293 291 291 293 295 296 294 296 296 298 294 296 296 297 295 294 295 294 294 294 293 293 293 293 293 294 293 293 294 294 294 295 295 296 296 296 296 296 295 294 295 295 293 292 291 294 296 297 296 296 295 293 293 292 291 290 290 290 289 288 288 288 288 288 289 288 288 288 288 289 289 289 290 290 290 291
284 285 286 283 278 281 293 297 298 298 297 296 294 294 295 296 296 297 296 297 297 295 294 295 296 297 298 296 294 293 293 294 294 294 293 293 293 293 293 293 293 294 296 296 296 295 294 294 291 291 291 292 289 290 291 292 294 296 296 295 295 293 292 291 290 290 290 290 289 288 288 288 288 288 288 287 288 288 288 288 289 290 289 289 290 289 289
285 284 283 277 280 287 292 295 297 298 298 297 295 293 295 297 297 297 296 297 298 296 295 294 295 295 296 294 295 295 294 294 295 294 295 295 294 294 295 295 295 294 293 295 296 296 295 291 291 293 294 291 291 290 289 292 292 293 294 294 294 292 291 290 290 290 289 289 288 288 287 287 288 288 288 288 288 287 287 287 288 288 288 289 288 288 288
282 283 284 283 287 285 288 289 291 295 292 293 292 288 292 297 298 297 296 297 298 298 298 298 295 291 292 291 295 295 296 296 296 298 300 301 297 297 297 295 296 295 296 295 296 293 291 293 293 292 289 290 290 289 289 289 291 292 292 292 292 291 291 290 290 289 289 289 288 288 287 287 287 287 287 287 287 287 287 287 287 287 288 287 288 288 287
286 283 282 283 282 281 285 292 295 299 299 299 298 294 291 296 298 299 298 297 298 298 298 297 291 290 291 291 294 296 294 296 299 299 301 297 294 295 295 293 292 291 290 291 291 291 290 289 289 288 288 290 289 289 289 289 290 290 291 291 291 290 290 290 289 289 289 289 288 287 287 287 287 287 287 287 287 287 288 287 287 287 287 287 287 287 287
284 283 282 282 280 284 291 291 294 297 299 296 294 289 287 295 297 299 298 297 298 298 297 296 291 291 290 292 295 295 296 296 298 300 301 296 293 293 294 294 294 291 289 289 288 287 289 291 288 287 288 289 289 289 288 289 290 290 290 290 290 290 290 290 289 289 289 289 288 287 287 287 287 287 287 286 286 286 287 287 286 286 286 286 286 286 286
284 284 283 281 285 286 289 293 294 296 296 299 294 283 284 296 297 298 298 297 298 297 297 293 293 293 290 293 294 296 298 300 301 301 299 295 292 291 287 288 288 288 286 289 288 289 291 292 288 287 288 289 288 288 287 288 289 290 290 290 290 290 290 289 289 289 289 288 287 287 287 286 286 286 286 286 286 286 286 286 286 286 286 286 286 285 285
284 285 283 285 285 288 288 291 294 295 298 295 286 281 290 296 298 298 298 298 298 298 294 293 293 296 299 296 295 297 299 299 298 294 293 293 292 292 287 287 285 287 286 288 288 287 286 286 284 285 287 287 286 286 287 288 289 289 289 290 290 290 290 289 289 288 288 288 287 287 287 286 286 286 286 286 286 286 286 286 286 285 285 285 285 285 285
283 284 283 283 287 288 289 289 295 296 293 285 284 295 295 296 297 298 298 297 297 297 296 295 297 299 299 294 297 296 296 298 298 294 289 285 284 283 283 284 285 285 284 284 284 284 282 283 284 285 286 287 284 285 286 287 286 286 289 289 289 289 289 289 288 287 287 287 287 286 286 286 286 285 285 286 286 286 286 285 285 285 285 285 285 285 285
285 284 282 281 279 289 293 292 292 295 290 290 293 292 292 289 291 295 296 298 298 298 297 298 298 298 298 296 293 293 294 293 290 289 287 289 287 286 285 284 282 285 284 284 283 283 282 282 283 283 285 284 282 282 285 282 282 284 287 289 289 289 289 288 287 287 287 286 286 286 286 286 286 285 285 285 285 285 285 285 285 284 284 284 284 284 284
282 283 281 282 289 289 294 295 290 293 293 289 290 289 290 286 287 290 293 294 296 296 298 297 297 297 294 288 291 291 289 289 287 285 285 284 283 282 282 283 283 283 283 283 283 282 281 280 280 281 285 284 282 283 281 282 281 283 287 289 289 288 287 287 286 286 286 286 286 286 286 286 286 285 285 285 285 285 285 285 284 284 283 283 283 283 283
287 286 289 291 289 293 297 298 297 298 296 286 285 290 289 290 290 287 292 294 293 293 296 297 297 294 291 291 290 292 290 287 287 286 285 285 285 284 284 283 282 283 284 284 283 282 280 280 280 279 281 284 282 282 282 281 282 284 286 287 287 286 286 286 286 286 286 286 286 286 286 286 285 285 285 285 284 284 284 284 284 283 282 282 282 283 282
292 292 291 290 287 287 292 293 290 295 297 285 287 289 288 289 288 289 292 292 294 292 293 294 288 292 290 290 288 290 288 285 283 282 282 282 282 282 282 282 283 284 285 285 283 282 281 280 279 279 280 282 283 279 280 279 281 283 285 286 285 285 285 285 285 285 285 285 285 285 285 286 285 285 285 284 284 283 284 283 283 283 282 282 282 282 282
288 285 294 293 291 289 288 292 292 287 290 289 284 286 287 286 285 287 288 288 290 292 291 294 292 290 289 290 288 286 285 284 283 283 283 282 283 283 283 284 285 285 285 284 282 281 280 279 279 279 279 279 279 279 279 280 281 282 282 282 283 283 283 283 284 284 284 284 284 284 285 285 284 284 284 284 283 283 283 283 282 282 282 281 281 281 281
288 289 291 292 293 291 291 291 292 292 290 288 286 285 285 286 284 284 284 285 286 287 290 292 292 289 288 289 287 286 286 285 284 283 282 282 282 284 284 284 285 285 284 282 281 280 279 278 278 279 279 279 278 278 279 280 281 281 281 281 281 281 281 281 281 282 282 280 282 283 283 283 283 282 283 284 283 282 282 282 281 281 281 281 280 280 280
290 292 291 289 288 289 291 289 287 287 288 288 287 285 284 284 286 286 284 282 286 288 292 290 290 288 287 289 288 287 285 284 283 283 282 282 283 283 283 284 285 284 284 282 280 279 277 278 278 278 277 276 275 277 279 280 281 280 279 279 279 278 278 278 278 277 278 279 279 279 278 277 276 277 279 277 278 277 277 277 278 278 276 275 275 273 275
287 287 290 290 287 287 288 288 289 289 288 288 287 285 286 285 286 284 286 286 283 283 284 288 290 290 287 285 286 286 285 284 283 281 281 282 283 283 284 285 284 283 282 280 278 277 277 277 276 275 273 271 271 273 275 279 280 279 278 278 277 276 276 277 276 276 275 275 275 276 275 275 275 275 279 280 278 276 274 280 282 282 281 274 274 275 274
287 290 286 290 293 288 286 293 293 292 290 290 290 289 289 289 289 287 286 286 287 286 285 284 287 288 287 285 285 285 284 283 282 282 282 282 282 282 283 283 282 281 280 279 277 276 276 275 273 272 271 270 270 271 273 277 279 279 278 278 277 276 276 275 276 276 275 275 275 275 274 275 275 275 273 277 282 283 281 281 282 283 283 284 283 281 277
293 289 289 291 290 292 290 289 292 293 291 291 292 292 292 289 287 286 286 287 288 286 284 283 283 286 286 285 286 284 282 281 281 281 282 283 283 283 283 282 281 279 278 277 277 275 274 272 271 270 269 268 268 268 270 273 277 278 278 278 277 276 275 275 276 274 274 274 274 274 273 272 274 273 273 273 273 280 282 281 282 283 283 282 283 283 283
293 290 287 289 291 293 291 290 292 294 294 292 293 293 292 288 286 285 286 285 284 285 286 284 282 285 286 284 285 284 282 280 280 281 281 282 282 282 281 281 280 279 278 277 276 274 273 272 271 270 269 267 267 267 269 272 275 276 275 276 275 274 274 274 274 274 274 274 273 274 273 273 273 272 272 272 273 271 274 280 281 281 281 282 282 282 282
295 288 289 289 289 291 291 290 291 292 291 288 289 289 287 287 286 285 284 283 283 283 283 283 283 282 285 284 282 280 279 279 279 280 280 280 280 280 280 279 279 278 276 274 273 272 271 270 269 269 267 265 266 266 268 272 274 274 274 274 274 274 274 274 274 273 273 273 273 272 272 272 272 272 271 271 270 271 270 271 272 275 279 281 281 281 282
290 290 290 290 289 289 287 289 293 293 292 290 290 288 285 285 284 282 279 278 277 279 280 281 281 281 281 280 280 279 279 278 279 279 279 278 278 278 277 276 276 274 273 272 271 270 269 268 268 267 266 265 264 265 268 272 273 273 273 273 273 272 272 273 273 273 272 272 272 272 272 272 271 271 270 269 270 270 269 270 270 269 269 272 278 282 278
289 287 290 292 291 290 290 290 291 288 289 289 286 283 280 281 281 281 280 280 279 279 280 280 281 280 280 279 279 278 278 278 277 276 276 274 274 274 274 273 273 272 271 270 269 268 267 267 267 266 265 265 265 265 267 271 273 272 272 273 273 272 272 272 272 271 271 271 271 271 271 270 270 269 270 270 270 269 270 269 269 269 269 269 270 275 280
284 282 280 281 282 283 284 285 287 287 285 280 281 281 282 282 279 280 278 279 278 279 279 277 277 277 279 278 278 278 277 275 275 274 273 272 273 272 272 272 271 270 269 267 266 266 266 265 265 265 264 264 264 265 267 270 271 271 271 271 271 271 270 270 270 270 269 269 270 271 272 269 270 269 269 269 268 267 268 268 269 267 266 266 269 271 273
279 280 281 281 281 283 284 287 288 287 282 280 282 281 283 284 282 279 279 277 277 279 277 277 278 277 277 277 277 277 275 274 273 272 272 272 271 271 271 270 268 267 266 265 265 264 264 264 264 264 263 262 264 264 267 268 268 268 268 268 269 269 269 269 269 269 270 270 269 271 270 269 268 267 268 267 267 268 268 267 268 267 265 266 270 266 267
279 280 278 281 283 284 284 286 285 282 280 278 280 281 279 280 281 279 277 277 275 277 276 277 277 276 275 275 273 272 272 272 272 272 271 271 270 270 270 270 270 268 265 263 263 263 263 263 263 263 262 261 263 264 267 268 268 268 268 269 269 271 271 271 270 268 268 268 268 268 267 267 266 267 267 266 266 266 265 264 265 265 266 264 266 266 267
279 280 281 280 280 282 283 282 282 282 280 278 279 282 282 282 281 280 278 278 277 277 276 275 275 273 272 271 271 271 271 270 269 269 268 268 267 265 265 266 265 264 263 263 263 263 263 262 262 261 260 262 263 263 265 266 266 267 267 267 267 267 270 270 269 269 267 267 266 267 266 266 266 265 266 265 265 265 264 265 264 265 264 265 266 265 266
282 281 281 281 280 280 282 281 283 283 280 280 280 279 279 278 279 279 278 277 275 275 276 274 272 271 271 271 270 269 269 268 267 267 265 264 264 264 264 263 263 262 262 262 262 262 261 261 260 260 260 261 262 263 263 263 264 266 265 265 266 267 268 269 268 267 266 266 265 265 264 264 264 264 264 265 264 264 263 263 264 264 264 264 263 263 266
282 284 280 278 280 283 284 283 280 280 276 273 272 273 274 275 277 277 276 275 275 274 272 271 271 271 271 270 269 268 268 268 266 264 263 263 263 262 262 262 261 261 260 261 261 261 261 260 260 260 260 260 261 261 262 262 263 263 263 264 265 266 266 265 266 265 265 265 264 265 264 264 263 263 263 263 262 262 263 263 264 264 263 263 262 262 267
272 273 274 275 275 275 277 280 281 279 276 274 271 271 271 273 274 274 274 274 273 272 272 271 271 271 270 269 269 270 270 267 264 263 263 262 261 261 261 261 261 260 260 260 260 260 260 260 259 259 260 260 260 260 260 261 261 262 261 263 264 264 264 264 264 264 264 263 262 262 262 262 261 264 263 261 261 262 262 263 262 263 262 262 262 262 263
271 272 272 271 271 272 275 277 277 277 276 273 270 270 271 271 272 272 272 272 272 272 271 271 271 270 270 270 269 268 266 264 264 263 262 262 262 262 262 262 261 261 260 260 260 259 260 260 262 262 260 259 259 260 261 260 259 261 261 262 263 263 263 263 262 262 262 261 261 261 260 262 262 262 261 261 260 260 260 260 261 261 261 261 262 261 261
269 270 269 268 269 269 269 270 272 273 272 271 271 271 271 271 270 271 271 271 271 271 271 270 270 269 267 267 267 266 265 265 264 263 263 263 263 263 263 263 263 262 262 260 258 259 260 261 262 261 260 259 260 260 261 262 261 260 261 262 262 262 262 262 261 261 260 260 260 259 261 260 259 259 261 259 260 260 260 259 261 261 261 261 261 261 261
266 267 266 266 266 267 266 267 269 269 269 268 268 269 269 269 269 268 268 268 267 267 267 267 266 266 266 266 265 265 265 265 264 264 264 264 264 263 262 262 261 261 260 258 257 257 258 261 261 260 259 259 260 260 261 262 262 262 262 261 260 260 261 261 261 261 260 258 260 258 259 259 258 257 258 258 258 259 260 260 261 261 260 260 260 260 261
265 265 266 266 266 266 266 266 266 267 267 266 265 266 267 267 267 266 266 265 266 266 265 265 266 265 265 265 264 264 264 264 263 262 260 259 259 258 257 257 258 258 258 260 259 260 261 261 262 261 260 260 260 260 261 261 262 261 261 260 261 261 262 261 261 261 261 261 259 258 257 258 258 259 259 258 258 259 261 260 260 261 259 258 258 258 258
264 264 264 265 264 264 263 264 264 264 265 266 266 265 266 266 266 265 265 265 265 266 266 266 266 265 264 264 263 263 262 261 261 259 259 259 259 258 258 258 258 259 260 261 261 261 261 262 261 261 261 260 260 260 260 261 262 262 262 262 262 262 262 261 261 261 260 260 260 261 259 259 259 259 259 259 257 258 257 258 258 258 258 257 256 256 258
263 264 263 263 262 261 261 262 262 263 264 264 264 265 265 265 265 264 264 264 265 266 266 266 265 264 264 263 262 262 262 262 261 261 262 263 263 263 261 258 258 258 260 260 260 261 261 261 261 260 261 261 260 260 260 261 262 262 262 262 262 261 261 261 261 261 261 260 260 260 259 259 258 257 257 256 257 256 256 256 256 256 255 255 255 255 256
261 262 261 261 261 261 262 262 262 261 261 262 262 262 262 263 263 262 262 262 263 263 262 262 263 262 262 262 262 261 260 260 259 259 260 261 263 262 260 259 259 257 260 260 261 262 261 261 260 259 260 260 260 259 259 261 262 262 261 261 261 261 260 260 260 260 260 260 259 258 258 257 256 256 256 256 255 255 255 255 254 255 254 255 256 255 255
261 260 260 260 260 260 260 260 259 259 259 259 260 261 262 263 263 263 263 263 263 262 262 262 262 262 262 262 262 260 260 260 260 259 259 258 259 260 260 259 259 258 259 260 261 261 261 260 260 259 259 259 259 258 259 261 261 262 261 260 260 259 259 259 259 259 259 258 258 258 256 256 255 254 255 254 253 253 254 253 253 254 255 254 254 254 255
261 261 260 260 260 260 260 260 259 259 258 258 259 259 260 260 261 261 261 261 261 262 263 263 263 263 263 263 263 262 262 262 261 261 260 259 259 259 259 259 258 258 258 259 260 259 259 259 258 258 258 258 258 258 259 260 260 261 260 259 259 259 258 258 258 258 258 258 258 257 256 256 256 255 255 254 254 252 254 254 253 253 254 254 254 254 254
261 261 261 260 260 260 259 259 258 257 257 258 258 257 258 258 258 259 259 259 259 259 260 260 260 261 261 261 261 260 260 260 261 263 264 262 260 258 259 258 258 258 258 258 259 259 259 259 258 258 258 258 258 258 259 259 259 259 259 258 258 258 258 258 258 257 257 257 257 257 257 256 255 255 254 253 256 254 254 254 254 254 254 254 254 254 254
261 261 261 260 260 259 259 259 259 259 259 259 258 257 257 257 257 257 257 257 257 257 257 258 258 259 260 260 259 260 260 259 258 257 257 259 261 259 258 257 257 257 257 257 258 258 258 258 257 257 257 257 257 257 257 257 257 257 257 257 257 257 257 257 257 256 256 256 256 256 256 255 254 254 254 253 253 254 255 256 256 254 254 254 254 254 255
261 261 261 261 262 262 262 262 262 262 262 260 257 256 257 257 257 256 256 256 256 256 255 256 256 256 256 257 260 261 260 258 257 258 258 258 258 257 257 257 256 256 256 256 257 257 257 257 257 257 257 256 257 256 256 256 256 256 256 256 256 256 256 256 256 256 256 256 256 257 257 256 255 254 254 255 255 255 254 254 253 254 253 255 255 256 256
261 261 261 261 261 262 261 261 260 258 257 256 257 257 257 257 257 257 258 257 256 256 255 255 255 255 255 256 256 256 256 259 260 257 257 256 257 257 257 256 256 255 255 256 256 256 256 256 256 256 256 256 256 256 255 255 255 255 255 255 255 255 255 255 255 255 255 255 255 254 254 254 254 254 253 253 254 254 254 253 254 253 255 253 254 255 253
259 259 260 260 261 260 259 259 259 257 257 257 257 257 258 258 258 257 257 258 258 257 256 255 255 255 255 255 255 255 255 255 257 258 256 254 255 255 255 255 254 255 255 255 255 255 256 255 255 256 256 255 255 255 254 254 254 255 255 255 255 255 255 255 254 255 254 254 254 254 254 254 254 254 254 254 254 253 254 254 254 253 253 254 254 255 255
258 257 256 255 256 256 257 257 256 256 256 256 256 257 258 259 258 256 256 257 257 257 257 256 256 255 255 255 255 254 254 254 254 254 254 254 254 254 254 254 254 254 254 254 254 254 255 255 255 255 255 254 254 254 253 253 254 254 254 254 254 254 254 255 255 256 255 255 255 255 255 255 254 254 255 254 254 254 254 254 254 256 257 257 256 255 254
256 255 255 254 254 254 254 255 255 255 255 255 255 256 256 256 255 255 255 256 257 256 256 256 256 255 255 255 255 254 254 254 253 253 254 254 254 254 254 254 254 254 254 254 254 254 254 253 253 253 253 253 253 253 253 253 253 253 253 253 253 254 253 254 254 253 254 254 254 254 254 254 254 254 253 253 254 254 254 254 254 254 253 254 254 254 254
255 255 255 255 254 254 254 254 254 254 254 254 254 254 255 256 256 255 254 254 254 254 255 256 255 255 255 254 253 253 254 253 253 253 253 253 253 253 253 253 253 253 253 253 253 253 253 253 253 253 253 253 253 252 252 253 253 253 253 253 253 253 253 253 253 253 253 254 254 253 254 254 253 253 253 253 253 253 253 253 253 253 254 254 254 254 254
Wind_Speed
8 4 10 12 14 17 19 20 19 22 19 19 20 20 19 12 11 17 17 11 11 17 15 14 14 13 13 8 7 9 10 5 2 2 5 6 7 6 5 7 6 5 6 5 5 5 7 5 6 6 6 6 5 5 5 5 5 5 4 5 4 4 4 4 3 3 3 2 2 1 1 1 2 2 3 2 2 2 3 4 4 5 5 5 5 6 5
11 5 9 14 17 14 14 17 20 22 24 24 25 24 23 20 17 21 24 20 25 27 21 19 19 12 6 6 5 3 3 4 7 7 8 8 9 8 8 9 8 7 6 5 5 5 5 7 6 6 6 7 7 8 7 6 5 5 5 5 5 4 4 4 3 3 3 3 2 1 0 1 1 0 0 0 1 3 3 2 2 1 2 2 4 5 6
10 6 7 11 15 16 15 16 17 19 18 19 23 22 20 17 17 18 21 22 23 17 6 7 8 6 8 9 9 9 7 7 8 9 10 11 10 10 9 9 7 6 7 7 5 5 7 7 8 8 8 7 6 6 6 6 6 6 6 6 5 4 4 3 3 3 3 3 4 4 3 3 2 2 2 2 2 2 1 2 2 2 3 3 3 3 4
9 7 10 16 16 17 18 18 18 18 19 19 17 18 19 19 23 27 23 18 18 15 8 6 6 9 12 13 12 7 8 10 9 10 12 12 11 11 11 9 7 7 7 7 7 8 8 8 8 7 8 7 7 9 7 8 7 6 6 6 6 6 5 5 5 5 5 5 5 5 4 4 3 3 3 3 3 2 2 3 2 3 3 4 4 4 4
10 12 12 15 12 10 13 19 23 26 26 25 25 24 24 23 23 20 17 21 26 8 9 13 10 13 12 11 12 12 8 9 13 15 15 13 12 12 11 10 10 10 10 9 9 9 7 8 8 10 8 7 10 9 9 8 7 7 7 7 6 6 6 6 6 6 5 5 5 4 4 4 4 4 4 3 3 3 4 3 3 3 4 4 4 4 5
9 12 11 8 10 17 18 19 29 31 30 29 26 24 24 22 17 15 20 22 19 7 14 14 14 9 10 13 11 11 14 13 12 13 11 11 12 11 10 10 10 9 6 6 8 10 10 10 11 8 10 11 9 7 7 7 9 8 8 7 7 7 6 6 6 6 5 5 5 5 3 4 4 4 4 5 4 3 3 3 4 3 3 4 4 5 6
5 9 9 11 18 17 11 7 13 21 25 23 24 23 22 19 18 18 22 25 22 7 4 6 9 11 9 9 13 13 10 12 13 15 13 11 11 11 10 9 9 8 10 9 9 7 7 8 5 5 6 6 4 5 7 8 7 8 8 8 7 7 7 6 5 5 6 5 5 5 4 4 5 5 5 4 4 4 4 4 5 6 6 5 6 5 5
3 8 12 10 12 2 2 11 15 14 7 11 13 17 20 24 29 31 31 29 16 7 10 8 7 8 9 6 7 10 11 10 11 10 11 12 12 11 10 11 9 9 9 11 11 11 7 4 6 7 8 6 6 5 5 7 7 7 7 7 7 7 7 7 7 6 6 5 5 5 5 5 5 6 5 5 6 4 4 3 2 2 3 4 5 5 4
7 5 11 10 4 4 1 4 9 16 21 23 24 24 29 30 19 16 18 22 19 15 19 17 7 1 0 3 10 8 9 11 9 11 14 15 11 12 10 9 9 10 10 9 10 6 5 7 7 7 5 6 7 7 6 6 7 7 7 7 7 7 7 6 6 5 6 7 6 7 6 6 6 6 6 5 4 4 5 4 4 4 4 3 3 3 4
2 7 8 5 1 9 10 13 6 22 23 21 18 13 17 6 16 19 24 28 27 24 21 11 4 3 4 9 14 10 8 9 11 14 17 10 6 9 9 7 7 5 5 4 2 5 6 5 4 5 6 8 8 8 7 7 8 8 8 8 7 7 7 7 7 6 6 6 7 6 5 6 6 4 3 2 3 3 4 4 3 2 2 1 1 2 3
3 4 10 9 11 13 11 15 15 19 14 8 11 4 19 13 19 24 25 28 26 21 19 13 8 6 11 19 19 10 13 12 15 19 19 10 8 9 9 9 8 6 5 5 6 5 6 6 5 6 8 9 9 8 8 8 8 8 8 7 7 8 6 6 6 6 6 5 5 5 5 4 3 4 4 3 2 2 2 2 2 2 2 2 2 2 2
3 4 6 9 4 9 5 9 13 11 14 16 13 11 16 26 20 20 23 29 28 20 18 10 12 16 16 26 10 14 18 21 22 19 15 10 7 6 3 2 4 5 6 6 4 5 7 8 5 6 6 7 6 7 6 6 7 8 8 7 5 5 5 5 5 5 5 4 3 3 3 2 1 2 2 3 3 3 2 2 2 2 2 2 2 2 2
8 9 4 3 6 5 3 9 12 15 15 16 16 18 25 14 15 20 23 28 25 17 11 13 16 21 24 9 8 16 18 17 13 8 7 6 5 8 7 5 4 6 3 4 5 3 1 2 4 4 5 6 5 5 6 7 8 5 3 4 4 5 5 6 6 5 4 4 5 3 3 3 3 3 2 3 3 3 3 3 3 3 2 2 2 2 1
9 6 7 7 7 7 6 2 17 17 14 12 17 23 5 11 19 18 18 19 14 12 17 17 19 21 17 8 13 12 14 17 17 10 6 5 4 3 3 6 6 6 5 6 6 5 3 3 4 5 5 6 4 5 5 6 4 3 4 5 5 5 6 6 6 6 5 4 4 5 5 5 5 4 3 4 4 4 4 4 4 4 3 3 3 3 3
0 1 3 1 9 7 15 11 10 13 16 18 8 1 2 1 6 14 15 18 18 20 22 25 24 22 19 18 15 13 14 11 8 9 8 9 9 9 7 4 3 7 7 6 5 4 2 3 3 4 6 5 4 4 5 4 3 4 5 5 5 6 7 6 6 6 6 6 6 5 5 5 6 6 5 5 5 5 5 5 5 5 4 3 3 2 2
6 9 10 10 8 2 15 22 15 16 6 3 8 5 3 2 5 6 10 10 13 15 17 19 20 22 11 2 7 7 7 7 6 5 5 6 6 5 3 5 7 8 9 6 6 4 4 3 3 3 7 7 5 5 3 1 4 4 5 5 6 6 6 6 6 6 6 6 6 5 6 6 6 7 6 6 5 5 5 5 5 5 4 4 3 2 1
9 10 13 6 2 10 16 18 9 15 11 2 4 7 5 5 7 3 8 12 11 11 15 18 19 15 11 11 11 13 11 9 10 11 9 10 10 9 9 7 6 5 9 9 7 6 5 4 3 3 4 8 6 6 1 3 5 6 6 6 6 6 6 6 6 6 6 5 5 5 5 6 6 6 6 5 5 4 5 5 5 5 4 4 4 3 3
7 12 7 3 4 3 9 6 2 8 14 3 1 2 3 5 4 8 8 8 11 11 12 13 5 10 9 12 11 9 11 10 5 6 7 6 6 8 8 8 7 9 9 9 9 8 7 5 5 4 5 6 9 4 2 4 5 6 7 8 8 7 6 6 7 7 8 6 6 5 5 4 5 5 6 5 5 5 4 4 4 4 4 3 3 3 3
5 10 17 20 13 7 7 8 8 4 4 3 1 2 2 3 3 5 7 5 7 11 10 14 12 8 10 12 10 6 8 9 10 10 10 8 9 11 11 9 11 11 10 10 10 10 8 3 5 5 6 6 6 5 6 5 6 7 8 9 8 7 7 7 6 7 8 6 6 5 5 5 5 5 5 6 6 5 5 5 4 4 4 4 3 3 3
9 19 6 6 9 9 10 8 8 8 5 2 2 3 2 3 3 2 3 0 4 5 7 11 11 11 10 13 11 9 10 11 10 9 10 11 8 6 8 10 10 10 10 10 9 8 8 6 5 6 6 6 5 7 7 8 8 10 9 9 9 8 8 7 6 7 7 8 8 6 5 6 6 5 5 5 6 6 6 6 6 5 5 5 5 5 5
11 18 12 10 6 7 12 9 5 4 4 4 3 1 0 1 2 0 1 1 5 6 10 8 10 11 10 13 16 14 9 9 9 9 10 8 10 12 12 9 9 10 11 10 9 9 8 4 5 6 5 3 3 6 8 9 10 11 10 9 10 9 8 7 7 6 7 6 6 6 5 4 3 4 6 5 5 3 2 4 6 6 6 5 5 4 4
13 17 18 8 10 9 4 5 7 7 6 6 4 1 2 1 3 3 2 0 1 2 3 8 12 14 10 7 10 13 12 12 11 10 10 10 12 10 9 9 9 10 10 12 12 12 8 6 6 6 4 2 1 2 5 7 10 12 11 10 9 8 7 7 7 7 6 6 5 6 6 6 5 3 3 5 5 5 1 1 4 5 6 4 5 5 4
19 8 4 8 9 5 5 9 11 11 7 6 8 9 8 9 9 7 8 5 1 1 1 1 6 10 13 11 9 11 9 10 10 11 14 15 14 12 12 13 11 11 11 11 11 11 8 7 6 5 5 2 2 1 4 6 9 11 11 10 8 8 7 7 7 7 6 6 6 6 6 6 5 6 6 6 6 7 6 6 6 5 5 5 5 5 5
18 5 5 7 7 10 8 8 9 11 9 10 12 12 11 8 7 7 8 8 9 7 2 2 3 10 9 11 13 13 8 10 11 11 8 10 11 12 10 11 13 13 13 11 13 12 8 7 7 5 5 2 1 1 1 5 6 8 8 9 9 8 7 6 7 6 6 6 6 6 5 5 6 6 6 6 4 5 5 4 4 5 4 4 4 4 3
14 6 5 6 10 11 8 10 12 14 13 12 12 14 13 8 6 6 6 4 3 3 8 6 4 6 12 9 9 14 15 11 10 12 12 12 11 10 10 10 11 13 11 9 8 7 7 7 7 5 6 2 1 1 2 5 7 8 6 8 9 7 7 7 7 7 7 7 6 6 6 6 5 5 6 6 7 3 3 5 4 3 2 2 1 1 0
12 4 6 4 3 7 6 4 7 9 10 5 4 4 3 6 7 6 5 4 2 1 2 6 7 5 9 12 10 10 10 10 11 11 11 12 10 10 11 11 10 7 8 8 7 6 6 6 6 5 5 3 3 2 1 6 8 9 8 8 8 8 7 8 8 7 7 6 7 6 5 5 6 6 5 6 5 6 5 3 4 4 5 5 3 2 3
6 5 4 4 7 8 4 8 11 10 12 9 10 5 3 4 5 4 3 4 3 2 4 4 4 7 7 8 10 8 13 12 10 9 9 9 10 8 8 8 9 9 9 8 6 6 6 5 6 6 5 4 4 3 1 6 8 9 9 9 8 9 11 8 7 7 7 6 7 6 6 6 6 5 6 4 4 5 5 5 4 3 2 5 6 6 2
5 4 8 14 15 11 9 12 12 6 6 7 5 5 4 6 7 6 5 4 4 5 6 6 8 10 11 8 12 13 11 11 11 9 9 9 8 8 9 11 11 11 9 8 7 6 5 5 6 7 5 4 4 3 3 5 8 8 8 8 8 7 7 8 7 7 6 6 6 6 7 6 6 5 6 6 6 5 4 4 4 4 4 3 2 5 6
3 2 1 3 4 4 6 5 2 4 3 2 5 7 8 8 5 6 5 4 4 6 7 5 5 4 8 9 8 12 12 11 12 11 9 8 9 10 11 11 11 10 10 9 7 5 6 6 6 7 5 5 5 4 4 5 7 7 7 7 7 7 6 6 6 7 7 7 6 7 6 7 7 6 6 6 6 5 6 5 4 3 4 3 5 6 6
1 0 0 2 2 2 3 6 9 7 5 4 7 6 7 10 8 5 6 5 5 7 5 6 8 7 6 9 8 9 12 13 12 9 10 10 9 9 10 11 12 11 10 9 7 5 6 6 6 6 4 6 5 4 4 7 7 7 7 7 6 7 6 6 6 7 7 7 7 7 7 6 5 6 6 6 5 5 6 5 4 4 4 3 4 4 5
1 0 2 1 1 2 5 8 5 3 2 2 4 6 3 3 7 8 7 5 4 6 6 7 9 10 8 9 9 10 11 11 12 12 11 10 9 8 8 7 11 11 9 8 6 5 7 6 6 5 4 5 4 4 5 7 6 7 6 6 6 8 10 8 6 7 7 7 7 7 6 6 5 6 7 6 6 6 5 5 5 4 4 3 3 3 3
3 2 2 1 1 4 5 3 3 5 4 2 4 8 11 12 13 14 12 11 10 9 10 10 11 10 10 10 12 13 13 12 12 12 11 10 9 7 8 10 12 12 10 8 7 6 6 6 7 4 4 5 4 4 4 5 5 6 6 5 6 5 6 8 7 6 6 7 6 6 7 7 6 6 6 6 5 5 4 5 4 3 2 3 2 2 2
4 0 3 3 3 3 6 6 7 7 5 6 6 2 0 0 1 5 7 8 10 8 10 10 10 11 12 13 13 13 13 13 12 11 12 11 9 9 8 9 10 11 10 8 7 6 6 7 5 3 4 4 5 5 5 4 3 5 4 4 5 5 5 5 6 6 6 6 6 6 6 6 6 6 6 6 5 5 4 4 2 2 2 2 1 2 2
7 7 3 2 3 6 7 6 3 3 1 1 2 1 2 2 4 7 9 8 9 10 9 10 11 12 13 14 14 14 15 15 15 13 10 10 11 9 9 9 10 11 10 8 8 7 6 5 4 4 5 5 4 5 5 5 4 4 4 5 5 5 5 5 5 5 6 7 6 6 6 6 5 5 6 5 3 3 4 1 2 2 1 1 1 2 5
3 3 1 0 2 5 6 5 4 4 4 4 3 4 3 4 5 6 7 9 9 9 10 11 11 11 12 13 14 12 11 13 10 10 9 10 11 10 10 12 12 12 12 10 8 7 5 6 4 4 5 5 5 3 4 4 4 4 3 4 4 5 5 5 5 5 6 6 4 6 4 5 4 4 4 3 2 3 2 2 1 1 0 1 1 1 2
2 2 4 4 4 5 4 2 2 4 4 5 5 5 5 5 7 8 9 7 8 9 11 12 12 12 12 11 11 12 14 12 12 12 12 12 11 9 10 12 12 13 13 11 7 5 5 5 7 7 4 4 5 5 3 3 4 5 4 5 5 6 6 6 6 5 6 5 5 4 4 4 3 4 3 1 1 1 1 0 0 0 0 0 0 1 1
4 4 4 5 5 7 8 7 4 6 7 7 7 8 10 8 8 8 9 9 9 9 10 11 12 12 10 9 10 11 11 10 10 10 11 10 9 9 10 10 9 10 10 11 3 3 3 5 6 7 5 3 5 6 7 5 4 5 4 5 5 6 6 6 6 6 6 4 4 4 5 4 2 1 2 1 0 0 1 0 0 0 0 0 0 1 2
5 6 6 6 7 8 9 7 6 7 11 12 9 8 8 10 9 9 9 9 8 8 9 9 11 11 12 12 11 12 11 10 11 11 11 9 8 11 8 9 7 6 8 6 2 3 2 4 7 5 5 5 4 4 8 10 7 6 6 6 6 6 6 5 5 5 5 4 4 2 1 1 1 1 1 2 1 1 1 1 1 0 0 1 1 1 2
7 6 8 8 8 9 9 9 9 8 9 11 7 9 9 10 11 11 11 10 9 9 12 12 12 13 13 14 13 12 11 10 10 10 11 10 9 12 10 7 6 5 5 4 4 3 3 3 5 5 5 6 6 4 5 10 10 5 5 6 6 5 5 5 4 4 3 2 1 1 1 1 1 1 1 1 1 1 3 3 1 2 1 1 1 1 1
6 6 7 9 9 9 9 10 10 9 8 7 10 11 8 11 11 12 11 11 9 9 11 11 13 13 13 14 14 12 9 9 9 11 12 12 13 14 10 8 6 6 5 6 4 3 5 7 5 5 5 5 5 4 1 4 6 6 4 4 4 4 4 3 3 3 1 1 1 2 3 3 2 2 2 2 2 2 2 2 1 2 1 1 1 2 3
7 7 7 9 8 8 12 13 12 10 9 10 9 9 8 9 11 13 13 11 9 9 9 9 12 12 12 12 12 11 10 9 9 9 8 9 10 8 11 8 3 3 4 4 3 5 6 5 5 5 4 4 4 6 5 4 2 3 4 4 3 3 2 2 1 2 1 2 3 3 2 2 2 2 2 1 1 1 1 1 1 1 2 2 2 2 2
7 8 10 10 8 9 10 9 12 14 12 12 11 10 10 9 9 11 10 11 12 12 12 11 11 14 12 12 12 12 10 8 10 11 10 7 6 9 15 6 2 3 4 4 3 5 5 5 5 5 4 3 3 5 4 3 3 3 3 4 3 2 2 1 2 2 2 3 3 3 3 1 1 1 1 1 1 2 1 1 2 2 2 2 2 3 3
8 9 10 9 9 9 9 10 12 12 11 12 12 12 9 8 10 12 12 12 11 12 13 13 13 13 12 12 12 12 8 6 7 7 8 9 10 8 7 6 4 2 4 3 4 4 4 4 4 3 4 4 3 3 2 2 3 3 2 2 2 2 2 2 2 2 2 2 2 3 2 1 1 1 1 2 3 2 2 2 3 4 3 3 4 3 3
10 9 9 10 9 8 8 10 10 11 13 11 9 9 12 15 14 16 17 17 15 13 13 12 11 11 10 10 10 8 7 5 5 4 8 7 8 9 8 5 4 5 6 4 4 4 4 3 3 3 4 4 5 4 1 1 1 2 2 2 1 2 2 2 2 2 2 2 1 2 1 2 1 2 2 3 3 3 3 3 4 4 4 4 4 5 4
12 12 13 13 12 9 8 9 11 12 10 9 9 11 10 11 13 13 11 13 14 14 14 13 12 11 10 10 10 8 6 5 4 2 6 6 8 4 3 4 4 4 4 4 4 4 3 3 3 4 3 3 4 3 2 1 1 2 2 2 1 1 1 1 1 1 2 2 2 2 3 2 3 3 3 4 4 3 4 4 4 5 5 4 5 4 6
14 15 15 15 13 12 10 10 10 11 12 12 14 12 10 9 10 10 10 12 13 10 9 9 11 9 8 8 8 8 7 7 7 7 5 4 3 5 5 4 3 3 4 4 3 3 3 4 4 3 3 3 3 2 2 2 1 1 1 1 1 1 1 1 2 3 3 3 3 3 3 3 3 4 4 4 5 5 5 5 6 4 5 5 5 5 5
12 11 11 12 13 11 10 10 10 11 12 15 16 9 7 9 10 8 9 12 12 10 9 8 9 8 8 8 5 5 5 6 5 6 6 6 7 6 6 5 4 4 3 2 2 1 1 1 1 1 2 2 2 1 1 1 1 1 1 1 1 1 1 2 2 3 3 3 4 4 4 4 4 4 5 4 5 5 4 5 5 5 5 6 4 6 5
11 12 13 15 16 14 13 13 13 15 12 13 7 6 6 7 10 10 9 8 10 10 8 7 7 7 7 7 7 6 4 2 5 4 4 4 4 4 3 2 2 2 2 1 1 0 2 0 1 2 2 2 1 1 1 1 1 1 2 2 2 2 3 4 5 4 4 4 3 3 4 4 5 4 4 5 5 5 5 5 6 5 5 5 5 5 4
14 15 12 12 12 10 11 13 12 11 8 5 7 5 5 6 8 8 8 7 9 8 8 7 8 7 6 6 6 5 5 5 4 4 3 2 1 2 2 2 2 1 1 1 1 1 2 3 2 3 3 3 2 2 1 1 2 3 3 3 4 4 4 5 5 4 4 4 4 4 4 5 5 4 5 5 6 5 6 6 5 4 4 5 5 6 5
9 9 8 8 9 12 8 7 9 6 3 4 4 3 1 1 7 6 4 5 5 5 6 5 5 4 5 4 5 4 4 4 5 5 3 2 2 2 1 1 1 2 1 1 1 1 2 3 3 3 2 1 1 2 1 2 2 3 3 3 3 4 4 5 5 6 5 5 4 4 5 5 5 5 6 5 6 5 5 5 5 6 6 6 6 5 5
5 7 7 6 6 6 8 8 7 5 4 4 4 2 3 6 6 4 4 3 3 4 4 4 4 4 3 4 4 4 4 4 3 3 2 2 2 2 2 1 1 1 1 1 1 1 2 1 2 2 2 2 2 2 2 2 3 4 4 4 4 4 4 5 5 5 5 5 4 5 5 5 5 6 6 6 5 5 5 5 5 4 5 5 5 5 6
7 6 5 5 5 5 6 7 7 6 5 4 4 4 4 4 4 5 5 6 5 4 3 3 3 3 3 4 4 3 3 3 2 2 2 1 1 1 1 1 1 1 2 2 2 2 2 1 2 3 3 3 3 2 3 4 4 4 4 5 4 5 5 5 5 5 5 5 5 5 6 6 5 6 6 5 4 5 4 4 5 5 5 5 5 6 6
Wind_Direction
229 132 145 157 179 189 188 187 177 186 186 188 196 212 220 191 201 228 228 215 234 246 214 222 229 220 223 210 203 207 203 187 177 202 218 222 221 229 235 242 235 233 237 229 225 219 216 204 204 207 205 208 206 206 199 194 185 190 172 148 149 140 131 142 161 156 140 123 101 86 119 161 188 210 218 225 211 180 194 202 200 199 201 203 191 202 203
223 209 185 166 175 190 193 193 189 186 185 191 196 208 212 206 213 221 232 216 223 230 222 204 219 224 224 237 208 198 162 184 194 199 212 215 217 214 220 224 222 221 225 227 226 217 213 206 206 204 205 204 201 197 200 194 183 190 150 164 161 164 171 178 167 158 174 178 164 132 112 163 244 303 345 339 170 192 207 213 217 197 196 194 193 203 198
224 221 209 182 180 181 192 193 196 192 192 198 202 207 213 215 233 240 241 239 241 245 108 172 214 212 226 241 239 214 199 200 195 200 211 217 215 217 223 225 223 222 222 219 211 205 214 209 208 202 205 202 198 200 197 189 187 180 162 159 166 174 199 189 194 197 201 197 215 228 206 170 134 139 141 130 133 132 122 122 148 146 145 162 186 181 183
216 207 199 192 186 187 189 191 192 191 192 202 206 211 208 197 211 221 232 243 251 242 141 181 170 188 203 209 216 203 211 203 192 201 216 215 213 217 220 222 220 222 224 213 201 208 214 214 208 205 205 199 190 206 193 193 185 165 163 168 176 185 186 187 194 193 191 187 189 201 191 190 172 155 129 126 127 125 123 135 134 127 156 179 180 179 175
210 199 191 188 184 185 203 199 190 192 197 200 204 212 209 207 206 214 217 232 233 226 157 212 203 197 201 201 200 206 205 194 198 207 215 212 211 215 214 215 216 212 209 205 202 213 212 210 207 213 193 177 204 200 189 189 163 172 177 177 176 182 183 182 190 185 181 181 185 184 193 181 163 149 152 144 142 149 175 170 131 158 186 169 185 178 176
203 178 184 164 171 203 210 200 197 190 195 198 203 210 212 213 206 216 221 231 234 145 202 207 215 193 200 199 209 190 186 197 212 222 219 212 210 213 215 215 213 215 211 215 215 211 208 209 207 197 183 193 202 186 174 160 172 179 178 184 182 186 180 189 187 183 178 176 179 181 163 153 152 154 163 180 172 158 143 148 173 176 174 187 180 183 189
185 144 142 182 212 211 222 209 193 198 200 196 204 215 214 213 215 228 238 239 235 183 207 192 209 208 208 195 196 207 206 191 196 212 218 217 217 214 213 217 219 211 207 211 216 223 234 222 203 168 200 198 149 149 158 165 173 174 183 180 188 180 185 185 181 183 177 175 170 160 163 159 158 166 170 160 164 172 171 180 182 189 187 189 196 192 194
73 163 173 194 213 223 33 130 174 188 184 209 210 235 229 215 211 212 223 232 231 201 228 211 209 199 218 223 230 208 204 195 200 213 223 222 218 217 211 210 210 201 203 205 206 215 214 170 182 186 187 165 152 159 154 160 166 173 176 186 188 177 185 183 184 183 174 169 163 164 165 165 165 171 174 177 174 165 156 161 166 158 181 176 187 191 184
184 171 185 205 36 7 228 132 168 154 190 196 192 208 223 218 214 217 237 243 237 227 233 222 205 127 34 276 256 233 211 217 218 220 238 236 204 206 216 204 212 209 206 200 207 191 168 185 177 188 148 148 137 139 152 160 162 168 173 188 194 187 183 176 179 178 173 169 171 171 172 171 178 178 175 175 168 159 160 173 174 186 193 188 175 172 175
171 164 185 219 267 234 217 217 182 195 201 197 199 209 254 180 201 208 221 231 228 226 232 229 163 122 241 264 245 220 224 223 224 233 238 234 178 199 206 214 225 227 223 213 187 175 170 165 167 142 154 146 141 145 158 160 164 173 182 192 185 184 185 175 173 174 177 174 171 173 172 181 184 182 167 151 165 172 170 171 181 178 144 124 115 153 173
158 232 195 194 206 229 214 199 187 197 192 139 88 166 250 219 194 206 215 229 230 222 225 215 146 150 224 240 238 173 197 214 220 224 230 217 200 197 201 198 212 212 179 161 149 135 139 161 183 166 156 150 147 162 167 169 169 176 190 185 180 183 180 171 168 166 169 170 168 167 179 185 172 166 169 159 117 115 94 103 109 112 122 130 125 136 156
248 208 213 221 206 233 231 167 196 176 116 118 114 202 242 236 192 203 206 225 226 216 216 174 177 201 222 236 209 170 188 204 213 215 218 213 208 206 178 197 189 159 140 105 104 138 172 193 168 159 152 148 156 157 165 156 173 191 193 186 175 161 155 159 159 154 153 155 150 158 160 134 124 116 105 104 119 120 100 104 104 99 111 129 151 151 139
219 211 250 336 282 267 211 189 152 145 132 128 175 209 229 238 167 206 206 221 221 209 192 169 206 216 224 221 162 188 193 206 216 222 199 197 199 193 185 172 131 124 118 127 146 152 152 110 129 135 133 132 148 153 156 169 197 188 155 148 156 157 152 149 146 146 141 152 156 146 139 139 120 106 107 115 112 105 96 81 82 68 63 53 54 44 35
210 206 223 242 264 236 162 200 145 144 137 196 203 219 224 113 174 203 206 223 218 193 199 204 216 228 221 193 195 184 191 197 209 193 164 117 71 59 102 123 129 113 101 99 92 68 50 102 123 131 128 133 139 144 155 186 192 155 155 146 145 144 147 142 139 139 141 128 122 129 124 130 128 110 91 95 97 100 91 90 85 76 68 60 57 50 38
67 83 213 224 252 243 159 137 152 169 177 208 213 78 34 131 195 192 202 205 207 191 207 209 215 225 220 202 196 187 189 191 181 176 171 167 157 151 135 109 106 124 112 103 96 96 50 63 99 125 121 127 135 138 159 206 177 156 145 137 132 135 133 136 139 138 135 132 130 130 128 124 122 117 116 110 107 107 109 105 102 98 89 85 82 73 55
185 191 200 216 224 16 135 148 183 201 209 151 154 149 216 208 146 181 201 214 212 204 209 216 221 227 212 184 198 185 183 179 163 144 132 114 113 109 91 119 133 119 113 111 100 67 46 40 61 108 131 134 139 136 164 139 113 123 127 128 124 122 123 124 123 120 122 121 123 126 129 126 124 129 126 123 118 124 126 127 128 121 114 112 105 97 93
201 203 218 214 202 178 183 179 183 184 212 186 194 171 178 157 239 158 168 214 218 203 207 219 219 217 195 187 175 175 188 170 164 162 160 155 147 139 134 132 128 121 128 122 106 73 47 44 50 72 119 128 126 123 131 120 123 122 122 118 113 110 112 112 109 109 102 105 110 114 120 124 123 124 123 124 116 119 120 121 127 124 128 128 130 135 138
244 271 268 297 285 264 259 270 336 198 200 199 150 134 207 248 193 172 189 211 215 214 212 215 216 192 182 161 186 176 160 149 128 114 114 111 114 112 114 118 121 123 115 108 106 100 68 51 67 72 78 114 119 133 100 108 114 116 115 111 106 105 104 104 108 108 101 98 100 108 109 113 123 133 136 135 130 132 125 127 128 135 136 141 143 151 174
182 249 239 237 239 269 292 266 267 291 284 241 213 112 180 226 205 202 239 240 230 218 196 196 193 176 164 168 170 154 139 146 151 153 144 144 145 145 141 142 135 128 127 123 120 110 99 65 81 86 93 90 115 130 124 125 118 113 110 109 110 110 112 114 114 115 119 121 122 120 121 124 129 136 140 139 138 140 147 143 143 141 143 151 161 169 188
194 244 248 254 230 220 248 232 235 258 263 206 261 265 227 180 171 178 248 232 219 180 185 191 170 172 171 156 166 162 168 158 155 152 149 144 129 120 128 133 138 132 133 130 127 120 115 108 100 101 99 108 123 128 132 129 126 119 119 125 127 130 130 130 131 133 131 137 135 136 143 143 139 138 147 149 148 156 157 160 151 159 164 170 181 183 189
243 263 281 275 355 266 239 253 275 279 285 282 286 307 325 78 125 210 358 238 222 214 201 165 153 150 185 171 166 162 154 147 153 158 148 144 139 138 146 148 147 143 138 121 119 112 118 109 114 102 104 103 115 133 138 135 131 126 128 130 130 131 135 132 138 139 138 143 142 138 133 114 118 145 150 145 141 149 181 152 157 160 173 179 183 186 168
240 230 240 211 230 245 272 266 264 259 232 191 218 320 306 248 203 204 166 330 344 173 179 161 156 162 165 163 152 155 162 161 150 143 140 141 141 137 141 139 132 122 126 126 127 130 132 135 127 121 110 94 55 104 140 140 135 132 135 133 132 136 140 137 139 137 138 139 136 129 124 124 110 54 49 126 141 134 176 187 151 151 146 170 188 175 171
232 231 56 134 224 239 212 211 224 229 227 189 199 210 217 224 212 179 165 166 154 111 99 194 158 152 158 160 149 137 150 156 154 150 150 149 151 149 146 137 134 132 135 135 130 121 135 134 129 128 120 118 110 90 145 151 143 139 140 136 135 138 138 141 143 138 135 132 134 129 131 125 113 111 81 41 58 92 108 102 106 110 115 129 147 162 167
240 203 210 185 181 225 232 226 220 225 211 193 216 225 226 222 191 189 193 203 172 171 185 116 168 154 146 152 149 142 133 139 141 146 141 139 137 134 139 142 141 138 137 144 144 138 141 140 136 131 113 80 48 19 89 139 133 133 137 136 137 141 136 134 129 125 125 127 124 118 112 107 116 119 118 101 46 31 61 86 95 106 108 112 109 127 139
235 196 201 199 213 223 211 206 212 219 212 198 208 223 224 205 196 190 206 235 314 172 158 144 119 145 142 147 149 150 152 148 147 140 139 136 138 139 136 134 140 142 141 135 126 127 129 135 128 121 106 74 353 22 104 133 129 123 123 124 127 128 130 128 126 124 122 121 122 125 129 127 121 119 123 129 122 87 16 23 58 61 72 68 75 59 337
230 174 204 212 269 239 240 258 252 239 240 203 226 261 207 182 179 181 194 173 154 109 140 146 136 129 142 139 133 123 115 129 134 133 133 137 134 133 139 142 134 119 119 118 112 108 113 109 107 96 82 15 351 338 67 123 123 124 124 124 126 133 136 134 127 124 124 128 127 124 122 119 124 119 124 127 125 127 100 56 25 7 18 18 358 319 342
225 193 176 272 267 261 243 209 226 223 232 214 207 204 140 135 136 110 67 75 87 88 114 105 106 113 98 108 109 110 127 123 114 114 121 123 128 125 117 105 107 106 104 102 96 98 107 99 87 79 61 357 332 334 67 117 115 113 115 116 115 112 116 120 124 125 124 121 120 119 115 114 113 107 109 100 107 104 111 113 97 71 358 352 13 35 33
194 180 177 217 235 231 231 231 241 282 270 235 182 132 123 107 107 106 98 90 80 78 80 101 126 131 121 127 125 117 114 120 122 121 116 110 104 104 106 107 107 108 103 99 101 91 82 84 80 72 42 349 342 351 51 101 101 103 105 108 109 110 110 111 108 108 108 110 108 109 110 108 106 107 106 104 99 104 101 100 93 80 41 24 351 350 24
192 127 6 231 265 273 296 324 326 262 290 48 116 117 130 121 123 128 136 133 130 114 103 97 84 100 125 128 128 130 129 125 122 118 105 97 113 113 113 110 107 101 101 95 87 86 87 81 82 72 31 348 353 7 43 76 89 97 99 101 105 102 100 99 102 103 102 102 102 108 109 109 110 104 104 103 105 97 94 94 89 86 81 26 20 7 6
123 344 23 289 290 311 301 257 230 224 199 169 151 171 171 151 152 165 150 154 157 139 141 124 117 117 129 122 122 131 134 130 121 108 112 112 110 115 114 115 106 94 90 84 80 78 84 80 74 68 18 344 356 27 67 80 82 84 88 88 94 102 107 111 109 109 108 108 108 104 100 102 100 107 102 96 94 90 88 79 85 78 58 35 54 66 46
360 69 63 20 315 258 228 250 269 254 186 176 179 155 163 150 156 148 158 155 134 133 142 138 131 126 118 117 111 105 104 106 110 114 111 110 109 114 125 131 128 129 119 110 94 85 85 80 67 51 348 345 1 32 74 88 93 91 88 90 94 106 112 112 108 115 117 112 108 103 101 97 99 99 95 92 84 81 80 85 77 73 75 71 70 54 22
89 53 65 11 286 247 257 251 208 219 201 171 149 184 182 168 175 180 172 171 172 154 140 135 135 130 121 114 114 112 110 110 108 106 104 98 88 71 78 85 89 98 104 102 93 90 90 86 71 23 351 1 14 25 57 99 105 106 110 116 108 106 105 106 100 95 97 102 108 104 110 107 101 99 96 93 98 98 100 91 83 81 82 76 51 29 352
127 14 279 240 247 269 249 233 202 217 191 195 215 243 214 293 94 129 146 139 131 145 141 137 131 128 126 122 120 118 115 112 108 105 100 91 88 87 87 89 93 95 91 81 79 73 77 83 70 24 19 18 24 26 33 47 68 93 92 92 96 96 96 94 108 108 103 102 101 107 107 104 108 102 104 102 98 97 91 92 95 86 73 62 34 331 357
211 195 147 124 162 212 237 255 231 209 105 36 22 53 79 86 130 132 136 140 133 131 135 132 129 127 125 124 123 124 127 122 115 113 103 107 107 103 98 95 97 91 86 82 77 69 60 67 64 50 34 36 41 38 35 40 59 70 85 92 106 107 106 106 104 104 102 95 100 99 98 98 91 98 99 99 96 94 96 100 97 98 68 22 346 337 347
300 293 263 284 256 244 248 250 224 188 161 136 78 51 59 88 105 119 124 132 138 131 125 123 123 123 123 125 128 132 129 123 105 109 109 113 117 118 117 110 103 94 83 67 63 58 54 60 68 62 52 47 54 56 50 43 47 77 80 95 95 96 92 89 81 83 94 102 98 90 86 83 83 78 83 90 94 109 103 104 107 94 86 15 326 360 347
344 40 53 50 7 357 28 41 97 129 127 123 112 105 97 100 104 112 116 109 111 118 123 124 125 124 125 128 126 123 121 123 120 118 119 121 124 126 120 113 110 103 97 81 49 41 42 57 60 65 72 61 54 46 52 52 40 51 62 73 80 83 78 79 74 71 65 70 74 72 77 77 76 65 85 91 96 94 102 99 91 91 111 237 265 350 302
31 73 88 75 52 52 49 41 42 98 107 112 115 112 102 90 94 92 98 107 111 116 121 123 122 118 111 102 100 101 107 115 119 119 121 123 125 121 116 109 102 111 108 93 48 39 43 71 68 62 71 73 59 43 38 49 60 41 50 59 63 65 69 67 59 63 58 52 58 54 50 51 43 41 59 102 75 82 100 117 90 83 268 246 323 343 340
51 71 71 72 73 68 56 49 52 85 101 87 73 81 94 99 97 95 91 86 89 95 95 95 100 103 102 102 99 103 106 108 113 115 118 117 119 106 87 87 83 93 89 100 123 86 76 83 78 73 68 69 72 53 36 36 47 53 51 48 50 54 56 60 59 57 58 46 42 49 57 66 86 34 19 47 64 76 68 54 47 39 306 347 324 332 316
74 64 72 77 76 78 82 66 57 60 83 100 95 78 83 94 97 97 92 87 88 97 102 106 109 105 107 108 107 103 102 103 102 100 96 91 90 89 84 76 70 65 92 105 99 92 72 81 89 78 64 52 53 67 46 34 35 64 64 54 52 57 54 52 56 50 48 47 59 72 64 31 57 55 31 12 29 28 23 360 354 339 357 309 330 309 308
80 78 85 89 82 87 81 80 71 66 59 65 94 102 106 103 101 100 99 95 90 98 108 114 113 111 112 110 108 103 100 100 107 109 112 115 108 103 97 74 52 41 62 78 74 71 65 64 69 71 68 57 44 43 353 41 42 55 67 67 54 53 54 56 57 67 63 88 57 44 53 34 45 38 32 24 21 7 347 330 334 318 308 307 310 297 305
87 92 81 79 80 78 77 84 81 74 69 69 70 82 84 100 105 98 95 97 93 91 96 106 110 103 103 105 104 102 101 101 102 111 128 122 102 104 102 95 41 33 39 57 65 71 67 60 54 62 67 62 57 35 40 38 73 64 55 73 82 63 65 82 119 122 124 59 50 45 35 34 29 13 359 6 335 323 309 309 296 299 290 295 292 298 290
86 85 91 88 80 90 95 92 97 86 71 69 60 44 45 48 73 88 87 87 89 83 83 76 90 105 107 102 98 92 72 65 64 50 38 52 79 117 99 82 87 45 52 56 60 79 76 68 60 49 51 55 67 33 33 53 86 104 84 65 94 105 101 90 85 47 51 58 45 28 3 12 19 322 327 336 314 298 294 301 307 301 302 297 291 288 290
72 81 84 87 84 82 89 89 85 88 83 56 44 41 60 66 80 84 82 85 92 96 94 97 95 94 99 102 101 93 80 77 75 82 70 51 34 8 54 108 98 65 48 60 67 79 68 66 60 54 42 43 46 29 42 71 77 96 117 112 85 97 97 72 50 32 33 19 346 349 5 319 292 283 285 278 273 276 288 289 285 287 289 285 282 284 286
70 72 83 88 85 88 92 94 93 84 80 69 52 48 53 55 43 64 74 73 73 80 94 95 93 91 92 100 96 94 96 95 95 91 98 88 66 43 42 72 84 66 56 69 76 74 76 76 63 68 66 51 41 26 51 70 73 84 99 108 69 57 56 50 27 45 359 307 321 264 271 271 283 259 259 269 275 285 277 271 268 271 273 276 272 271 266
81 84 86 83 89 84 77 81 80 80 88 98 77 58 52 59 52 37 60 73 74 68 58 64 69 73 73 56 67 71 62 44 25 339 102 104 95 91 85 68 80 79 62 73 89 90 88 89 91 76 61 52 40 36 51 50 59 51 46 44 55 41 19 351 312 315 265 263 266 255 251 248 251 255 259 258 259 259 265 269 272 268 264 269 266 266 268
86 89 94 95 88 84 87 92 103 114 114 95 76 59 46 52 64 57 50 70 75 67 69 70 70 58 67 83 87 86 81 71 58 42 30 8 85 125 115 99 84 83 76 77 87 100 97 84 83 70 58 36 28 40 29 8 349 335 359 21 26 355 300 296 270 268 263 249 253 253 252 253 259 260 249 247 252 256 262 264 265 266 259 257 261 258 259
86 81 77 83 88 89 92 98 101 89 81 71 63 54 37 51 65 64 65 68 77 79 74 70 68 60 46 39 50 94 97 88 64 45 43 58 65 71 93 88 77 68 57 58 65 89 106 86 55 43 29 7 19 33 23 350 3 327 319 318 304 275 258 269 263 254 261 264 260 256 252 245 239 241 248 256 258 258 262 262 264 262 260 261 265 268 270
81 84 86 87 91 93 93 84 70 55 52 58 78 76 68 68 71 74 71 70 74 74 70 65 67 61 55 59 55 44 16 41 88 54 59 63 70 76 59 44 46 31 35 109 99 180 68 34 354 1 1 358 6 2 352 326 322 313 288 267 271 260 250 246 248 248 251 261 259 250 260 265 260 255 254 249 254 255 252 250 254 260 262 261 262 264 268
71 77 75 77 84 82 70 72 76 68 61 55 58 67 64 84 77 62 55 60 69 71 70 69 69 66 65 57 56 45 45 11 45 123 104 95 45 74 73 85 44 26 63 25 48 337 7 351 332 315 337 336 337 334 327 300 291 276 270 259 251 253 258 242 250 257 259 258 260 257 256 254 257 249 253 256 256 252 251 252 254 254 263 268 271 272 270
76 77 57 39 40 31 27 66 68 70 61 54 57 38 332 36 72 43 39 41 65 79 78 69 63 64 67 57 51 58 48 45 53 68 79 85 89 74 77 76 58 16 357 336 343 336 349 352 352 345 333 330 316 278 281 273 267 273 271 269 270 267 267 265 266 267 260 257 257 257 258 254 256 254 252 249 247 245 247 249 256 262 262 266 269 267 268
27 49 59 61 63 62 42 55 75 75 72 59 46 10 21 60 79 70 47 31 51 69 75 80 72 72 66 64 67 54 51 52 60 60 69 47 50 53 8 20 351 356 314 309 287 308 291 325 279 288 285 264 251 234 223 239 250 262 265 266 266 268 270 273 270 268 268 266 261 260 260 261 257 255 253 249 254 262 268 273 276 274 272 268 266 265 264
62 68 69 66 70 66 69 63 57 56 52 46 32 22 26 60 86 83 58 34 45 54 45 83 83 72 69 61 58 49 53 50 35 25 42 41 17 354 307 345 310 288 283 267 261 257 252 230 253 262 256 240 223 233 253 260 259 256 255 256 256 257 257 259 261 259 261 263 260 260 260 258 252 253 259 261 262 266 270 269 266 266 265 264 261 260 262